Вернуться в каталог

JIELONG 3 DEB

АктивенLEO
NORAD 62575·DEBRIS·🇨🇳 China

Запущен Jan 13, 2025 с Yellow Sea Launch Area

Loading…

Ближайшие Пролёты (ближайшие 24 часа)

TLE

СвежийSource: Space-Track

Эпоха: Sep 14, 2026, 11:06 UTC

1 62575U 25007A   26257.46264020  .00000818  00000-0  14559-3 0  9999
2 62575  54.9831 159.4393 0010249 214.3243 145.7096 14.76824760 89965

Отслеживайте JIELONG 3 DEB в реальном времени с AllMySat

Download on the App Store